Flag for Germany Weather for the Past 2 Weeks in Gronau (Westfalen), North Rhine-Westphalia, Germany

Now
41 °F

Overcast.


Feels Like: 41 °F
Forecast: 38 / 65 °F
Wind: 1 mph from Northeast

Location: Twenthe

Current Time: May 2, 2016 at 1:20:40 AM

Latest Report: May 2, 2016 at 12:00 AM


Visibility: 22 mi

Pressure: 30.35 "Hg

Humidity: 93%

Dew Point: 39 °F

Location of Gronau (Westfalen)Location

Historic Weather in Gronau (Westfalen) — Graph

°F

Gronau (Westfalen) Temperature Yesterday

Maximum temperature yesterday: 57 °F (at 6:00 PM)
Minimum temperature yesterday: 35 °F (at 4:00 AM)
Average temperature yesterday: 46 °F

High & Low Weather Summary for the Past Weeks

 TemperatureHumidityPressure
High61 °F (Apr 21, 4:00 PM)98% (Apr 18, 1:00 AM)30.45 "Hg (Apr 18, 1:00 AM)
Low30 °F (Apr 25, 2:00 AM)37% (Apr 19, 5:00 PM)29.41 "Hg (Apr 26, 7:00 AM)
Average44 °F74%29.99 "Hg
* Reported Apr 17 1:00 PM — May 1 11:00 PM, Gronau (Westfalen), Weather by CustomWeather, © 2016

Note: Actual official high and low records may vary slightly from our data, if they occured in-between our weather recording intervals... More about our weather records

Advertising

Gronau (Westfalen) Weather History for the Previous 24 Hours

Scroll right to see more
 ConditionsComfort  
Time TempWeatherWind HumidityBarometerVisibility
11:00 PM
Sun, May 1
43 °FOvercast.1 mph86%30.35 "Hg28 mi
10:00 PM45 °FOvercast.1 mph89%30.36 "Hg28 mi
9:00 PM50 °FOvercast.2 mph66%30.34 "Hg28 mi
8:00 PM54 °FPassing clouds.3 mph56%30.34 "Hg22 mi
7:00 PM56 °FPassing clouds.5 mph48%30.33 "Hg25 mi
6:00 PM57 °FPartly sunny.5 mph46%30.33 "Hg22 mi
5:00 PM56 °FPassing clouds.3 mph49%30.33 "Hg25 mi
4:00 PM55 °FPassing clouds.5 mph53%30.33 "Hg22 mi
3:00 PM53 °FOvercast.6 mph63%30.34 "Hg22 mi
2:00 PM51 °FOvercast.6 mph67%30.34 "Hg19 mi
1:00 PM49 °FOvercast.5 mph69%30.34 "Hg19 mi
12:00 PM50 °FOvercast.3 mph65%30.34 "Hg19 mi
11:00 AM49 °FOvercast.5 mph65%30.34 "Hg19 mi
10:00 AM47 °FOvercast.3 mph72%30.34 "Hg25 mi
9:00 AM44 °FOvercast.3 mph78%30.33 "Hg19 mi
8:00 AM42 °FOvercast.3 mph83%30.32 "Hg17 mi
7:00 AM40 °FOvercast.3 mph88%30.31 "Hg16 mi
6:00 AM36 °FOvercast.3 mph94%30.30 "Hg14 mi
5:00 AM35 °FOvercast.2 mph97%30.29 "Hg9 mi
4:00 AM35 °FOvercast.1 mph97%30.28 "Hg7 mi
3:00 AM36 °FOvercast.1 mph97%30.27 "Hg12 mi
2:00 AM38 °FOvercast.2 mph91%30.26 "Hg18 mi
1:00 AM40 °FOvercast.2 mph87%30.26 "Hg22 mi
Weather by CustomWeather, © 2016

See weather overviewHow to use our weather pages